Location: Bu�n Treun
(12.1333°N, 108.3167°E)
Time: 12:54:29
(UTC+00:00)

Cosmos 1484 Rocket - Pass Details

Date: 13 July 2020
Orbit: 505 x 560 km, 97.4° (Epoch: 06 August)

Event Time Altitude Azimuth Distance (km) Brightness Sun altitude
Rises 21:21:59 0° 6° (N) 2,641 6.8 -15.8°
Reaches altitude 10° 21:24:07 10° 3° (N) 1,745 5.8 -15.4°
Maximum altitude 21:27:49 63° 282° (WNW) 574 2.6 -14.5°
Enters shadow 21:30:41 16° 203° (SSW) 1,393 4.4 -13.9°
